DW5684 Weather Reports


Display with metric or nautical units.
time (UTC)temp
F
wind
direction
speed
MPH
gust
MPH
rain 1hr
in
rain 24hr
in
rain mn
in
humidity
%
barometer
mb
20260903100827 75 215 0.0 0.0 0.00 0.00 0.00 81 1015.6
20260903100320 76 215 0.0 0.0 0.00 0.00 0.00 80 1015.5
20260903095818 76 215 0.0 1.0 0.00 0.00 0.00 80 1015.5
20260903095333 76 217 0.0 1.0 0.00 0.00 0.00 80 1015.6
20260903094828 76 166 0.0 0.0 0.00 0.00 0.00 80 1015.6
20260903094342 76 171 0.0 0.0 0.00 0.00 0.00 80 1015.5
20260903093836 76 176 0.0 0.0 0.00 0.00 0.00 79 1015.5
20260903093331 77 179 0.0 0.0 0.00 0.00 0.00 79 1015.5
20260903092826 77 180 0.0 0.0 0.00 0.00 0.00 79 1015.5
20260903092322 77 180 0.0 0.0 0.00 0.00 0.00 79 1015.5
20260903091836 77 166 0.0 0.0 0.00 0.00 0.00 78 1015.5
20260903091336 77 166 0.0 0.0 0.00 0.00 0.00 78 1015.5
20260903090831 77 167 0.0 0.0 0.00 0.00 0.00 78 1015.5
20260903090326 77 165 0.0 0.0 0.00 0.00 0.00 77 1015.5
20260903085822 77 162 0.0 0.0 0.00 0.00 0.00 77 1015.5
20260903085337 78 162 0.0 0.0 0.00 0.00 0.00 77 1015.4
20260903084831 78 191 0.0 0.0 0.00 0.00 0.00 77 1015.3
20260903084326 78 122 0.0 0.0 0.00 0.00 0.00 77 1015.3
20260903083826 78 94 0.0 0.0 0.00 0.00 0.00 77 1015.3
20260903083340 78 139 0.0 1.0 0.00 0.00 0.00 76 1015.3
20260903082834 78 137 0.0 1.0 0.00 0.00 0.00 76 1015.3
20260903082328 78 64 0.0 0.0 0.00 0.00 0.00 76 1015.3
20260903081822 78 72 0.0 0.0 0.00 0.00 0.00 76 1015.2
20260903081336 79 148 0.0 0.0 0.00 0.00 0.00 75 1015.2
20260903080851 79 150 0.0 0.0 0.00 0.00 0.00 75 1015.2
20260903080323 79 56 0.0 1.0 0.00 0.00 0.00 75 1015.1
20260903075818 79 213 0.0 1.0 0.00 0.00 0.00 75 1015.1
20260903075333 79 132 0.0 1.0 0.00 0.00 0.00 75 1015.1
20260903074833 78 130 0.0 1.0 0.00 0.00 0.00 75 1015.1
20260903074328 78 143 0.0 0.0 0.00 0.00 0.00 76 1015.2
20260903073821 78 90 0.0 0.0 0.00 0.00 0.00 76 1015.1
20260903073336 78 72 0.0 0.0 0.00 0.00 0.00 76 1015.1
20260903072829 78 137 0.0 0.0 0.00 0.00 0.00 76 1015.0
20260903072324 78 139 0.0 0.0 0.00 0.00 0.00 75 1015.0
20260903071818 79 140 0.0 0.0 0.00 0.00 0.00 74 1015.1
20260903071331 79 140 0.0 0.0 0.00 0.00 0.00 74 1015.1
20260903070823 79 138 0.0 1.0 0.00 0.00 0.00 74 1015.1
20260903070322 79 141 0.0 1.0 0.00 0.00 0.00 73 1015.0
20260903065837 79 153 0.0 0.0 0.00 0.00 0.00 73 1015.0
20260903065351 79 152 0.0 0.0 0.00 0.00 0.00 73 1015.0
20260903064825 79 160 0.0 1.0 0.00 0.00 0.00 73 1015.1
20260903064401 79 184 0.0 1.0 0.00 0.00 0.00 73 1015.1
20260903063837 80 115 0.0 0.0 0.00 0.00 0.00 72 1015.1
20260903063331 80 110 0.0 0.0 0.00 0.00 0.00 72 1015.1
20260903062846 80 139 0.0 0.0 0.00 0.00 0.00 71 1015.1
20260903062341 80 157 0.0 0.0 0.00 0.00 0.00 71 1015.1
20260903061837 81 157 0.0 1.0 0.00 0.00 0.00 70 1015.1
20260903061332 81 154 0.0 4.0 0.00 0.00 0.00 70 1015.0
20260903060832 81 150 1.0 5.0 0.00 0.00 0.00 70 1015.0
20260903060327 81 142 1.0 5.0 0.00 0.00 0.00 69 1015.0
20260903055821 81 143 0.0 4.0 0.00 0.00 0.00 69 1015.0
20260903055336 81 155 0.0 0.0 0.00 0.00 0.00 68 1015.0
20260903054851 82 157 0.0 2.0 0.00 0.00 0.00 67 1014.9
20260903053819 82 182 0.0 3.0 0.00 0.00 0.00 66 1014.9
20260903053334 83 174 0.0 3.0 0.00 0.00 0.00 66 1014.9
20260903052828 83 159 0.0 6.0 0.00 0.00 0.00 65 1014.9
20260903052328 83 179 1.0 5.0 0.00 0.00 0.00 65 1014.9
20260903051821 83 164 1.0 5.0 0.00 0.00 0.00 64 1014.9
20260903051336 83 187 1.0 4.0 0.00 0.00 0.00 64 1014.8
20260903050832 83 160 1.0 5.0 0.00 0.00 0.00 64 1014.8
20260903050323 83 186 1.0 4.0 0.00 0.00 0.00 64 1014.8
20260903045837 84 163 0.0 4.0 0.00 0.00 0.00 64 1014.8
20260903045332 84 165 0.0 4.0 0.00 0.00 0.00 63 1014.8
20260903044828 84 174 1.0 4.0 0.00 0.00 0.00 63 1014.8
20260903044327 84 149 0.0 3.0 0.00 0.00 0.00 63 1014.8
20260903043843 84 182 1.0 3.0 0.00 0.00 0.00 63 1014.8
20260903043337 84 186 1.0 5.0 0.00 0.00 0.00 62 1014.8
20260903042833 84 186 2.0 5.0 0.00 0.00 0.00 62 1014.7
20260903042328 84 177 2.0 5.0 0.00 0.00 0.00 62 1014.6
20260903041822 84 174 2.0 5.0 0.00 0.00 0.00 62 1014.7
20260903041356 84 164 2.0 5.0 0.00 0.00 0.00 62 1014.8
20260903040828 85 146 0.0 6.0 0.00 0.00 0.00 61 1014.8
20260903040326 85 125 2.0 6.0 0.00 0.00 0.00 61 1014.8
20260903035819 85 216 1.0 4.0 0.00 0.00 0.00 61 1014.7
20260903035334 85 188 2.0 5.0 0.00 0.00 0.00 60 1014.7
20260903034829 85 171 2.0 5.0 0.00 0.00 0.00 60 1014.7
20260903034324 85 158 2.0 6.0 0.00 0.00 0.00 60 1014.7
20260903033857 85 139 2.0 6.0 0.00 0.00 0.00 60 1014.7
20260903033332 84 121 2.0 4.0 0.00 0.00 0.00 60 1014.7
20260903032825 84 203 1.0 4.0 0.00 0.00 0.00 60 1014.6
20260903032323 84 175 1.0 3.0 0.00 0.00 0.00 60 1014.7
20260903031818 84 195 1.0 2.0 0.00 0.00 0.00 60 1014.7
20260903031332 84 168 0.0 3.0 0.00 0.00 0.00 60 1014.6
20260903030827 84 164 1.0 4.0 0.00 0.00 0.00 60 1014.6
20260903030322 83 177 1.0 4.0 0.00 0.00 0.00 61 1014.6
20260903025837 82 164 0.0 0.0 0.00 0.00 0.00 63 1014.5
20260903025331 81 146 0.0 0.0 0.00 0.00 0.00 64 1014.5
20260903024827 80 122 0.0 0.0 0.00 0.00 0.00 64 1014.5
20260903024325 80 122 0.0 0.0 0.00 0.00 0.00 64 1014.4
20260903023841 80 122 0.0 0.0 0.00 0.00 0.00 64 1014.4
20260903023354 81 122 0.0 0.0 0.00 0.00 0.00 64 1014.4
20260903022828 81 122 0.0 0.0 0.00 0.00 0.00 64 1014.3
20260903022323 81 122 0.0 0.0 0.00 0.00 0.00 63 1014.3
20260903021817 81 122 0.0 0.0 0.00 0.00 0.00 64 1014.2
20260903021332 81 122 0.0 0.0 0.00 0.00 0.00 66 1014.2
20260903020847 81 122 0.0 0.0 0.00 0.00 0.00 64 1014.1
20260903020322 81 122 0.0 0.0 0.00 0.00 0.00 64 1014.1
20260903015820 81 122 0.0 0.0 0.00 0.00 0.00 63 1014.0
20260903015335 81 122 0.0 0.0 0.00 0.00 0.00 63 1013.9
20260903014829 82 122 0.0 0.0 0.00 0.00 0.00 63 1013.9
20260903014325 82 122 0.0 0.0 0.00 0.00 0.00 62 1013.8
20260903013819 83 122 0.0 0.0 0.00 0.00 0.00 61 1013.7
20260903013333 83 122 0.0 0.0 0.00 0.00 0.00 61 1013.7
20260903012827 84 122 0.0 0.0 0.00 0.00 0.00 59 1013.6
20260903012327 84 122 0.0 0.0 0.00 0.00 0.00 59 1013.5
20260903011820 85 122 0.0 0.0 0.00 0.00 0.00 58 1013.5
20260903011335 85 122 0.0 0.0 0.00 0.00 0.00 57 1013.4
20260903010830 86 122 0.0 0.0 0.00 0.00 0.00 55 1013.4
20260903010321 87 122 0.0 0.0 0.00 0.00 0.00 54 1013.4
20260903005835 88 122 0.0 0.0 0.00 0.00 0.00 53 1013.4
20260903005329 89 122 0.0 0.0 0.00 0.00 0.00 52 1013.4
20260903004824 90 122 0.0 0.0 0.00 0.00 0.00 50 1013.3
20260903004319 91 78 0.0 0.0 0.00 0.00 0.00 49 1013.3
20260903003833 91 78 0.0 0.0 0.00 0.00 0.00 47 1013.3
20260903003349 92 81 0.0 0.0 0.00 0.00 0.00 47 1013.3
20260903002822 93 79 0.0 0.0 0.00 0.00 0.00 46 1013.3
20260903002336 93 78 0.0 0.0 0.00 0.00 0.00 45 1013.3
20260903001829 94 185 0.0 2.0 0.00 0.00 0.00 45 1013.3
20260903001324 94 166 0.0 5.0 0.00 0.00 0.00 43 1013.3
20260903000819 95 94 1.0 5.0 0.00 0.00 0.00 43 1013.3
20260902235832 95 68 0.0 4.0 0.00 0.00 0.00 43 1013.3
20260902235326 96 67 1.0 5.0 0.00 0.00 0.00 42 1013.3
20260902234819 96 169 2.0 5.0 0.00 0.00 0.00 41 1013.3
20260902234354 96 159 0.0 5.0 0.00 0.00 0.00 41 1013.3
20260902233828 96 160 0.0 1.0 0.00 0.00 0.00 39 1013.3
20260902233343 97 164 0.0 1.0 0.00 0.00 0.00 38 1013.3
20260902232837 97 41 0.0 3.0 0.00 0.00 0.00 38 1013.4
20260902232332 97 165 1.0 3.0 0.00 0.00 0.00 37 1013.4
20260902231825 97 181 0.0 2.0 0.00 0.00 0.00 38 1013.4
20260902231343 98 165 0.0 4.0 0.00 0.00 0.00 39 1013.4
20260902230836 98 224 1.0 4.0 0.00 0.00 0.00 38 1013.4
20260902230329 98 210 0.0 5.0 0.00 0.00 0.00 38 1013.4
20260902225823 99 176 2.0 5.0 0.00 0.00 0.00 38 1013.5
20260902225318 99 167 2.0 6.0 0.00 0.00 0.00 38 1013.5
20260902224833 99 165 2.0 6.0 0.00 0.00 0.00 38 1013.6
20260902224328 99 133 2.0 6.0 0.00 0.00 0.00 37 1013.5
20260902223823 99 83 2.0 6.0 0.00 0.00 0.00 37 1013.6
20260902223322 99 175 1.0 6.0 0.00 0.00 0.00 37 1013.6
20260902222856 99 103 1.0 6.0 0.00 0.00 0.00 37 1013.7
20260902222330 99 103 0.0 5.0 0.00 0.00 0.00 37 1013.7
20260902221825 99 118 1.0 5.0 0.00 0.00 0.00 37 1013.7
20260902221339 99 131 0.0 3.0 0.00 0.00 0.00 37 1013.8
20260902220833 100 118 0.0 4.0 0.00 0.00 0.00 37 1013.8
20260902220327 100 194 0.0 5.0 0.00 0.00 0.00 37 1013.8
20260902215822 101 49 1.0 5.0 0.00 0.00 0.00 37 1013.8
20260902215336 100 212 1.0 3.0 0.00 0.00 0.00 37 1013.7
20260902214835 100 175 0.0 6.0 0.00 0.00 0.00 36 1013.8
20260902214329 102 214 0.0 4.0 0.00 0.00 0.00 34 1014.0
20260902213823 103 228 0.0 5.0 0.00 0.00 0.00 35 1014.0
20260902213356 103 215 1.0 5.0 0.00 0.00 0.00 35 1014.0
20260902212850 102 218 0.0 3.0 0.00 0.00 0.00 36 1014.0
20260902212324 102 176 1.0 3.0 0.00 0.00 0.00 38 1014.1
20260902211819 101 230 0.0 1.0 0.00 0.00 0.00 37 1014.1
20260902211334 100 185 0.0 0.0 0.00 0.00 0.00 40 1014.2
20260902210848 100 6 0.0 4.0 0.00 0.00 0.00 37 1014.2
20260902210325 101 169 0.0 5.0 0.00 0.00 0.00 37 1014.3
20260902205819 103 212 0.0 5.0 0.00 0.00 0.00 35 1014.3
20260902205334 102 211 1.0 5.0 0.00 0.00 0.00 37 1014.4
20260902204829 101 165 0.0 5.0 0.00 0.00 0.00 38 1014.4
20260902204324 101 51 0.0 6.0 0.00 0.00 0.00 36 1014.4
20260902203838 102 141 1.0 6.0 0.00 0.00 0.00 38 1014.6
20260902203332 103 185 0.0 6.0 0.00 0.00 0.00 38 1014.7
20260902202827 102 169 0.0 5.0 0.00 0.00 0.00 37 1014.8
20260902202326 102 198 2.0 4.0 0.00 0.00 0.00 38 1014.8
20260902201839 102 257 1.0 7.0 0.00 0.00 0.00 36 1014.9
20260902201333 102 133 2.0 7.0 0.00 0.00 0.00 37 1014.9
20260902200826 102 215 0.0 2.0 0.00 0.00 0.00 36 1015.0
20260902200339 101 102 0.0 4.0 0.00 0.00 0.00 37 1015.0
20260902195831 100 217 0.0 6.0 0.00 0.00 0.00 37 1015.1
20260902195346 102 234 3.0 6.0 0.00 0.00 0.00 35 1015.2
20260902194820 102 214 1.0 6.0 0.00 0.00 0.00 38 1015.3
20260902194335 101 196 3.0 6.0 0.00 0.00 0.00 38 1015.4
20260902193829 101 212 1.0 6.0 0.00 0.00 0.00 38 1015.4
20260902193326 101 237 3.0 6.0 0.00 0.00 0.00 39 1015.5
20260902192820 102 229 1.0 6.0 0.00 0.00 0.00 38 1015.5
20260902192334 101 143 3.0 6.0 0.00 0.00 0.00 39 1015.7
20260902191829 101 240 0.0 1.0 0.00 0.00 0.00 39 1015.6
20260902191324 101 214 0.0 4.0 0.00 0.00 0.00 39 1015.9
20260902190836 101 180 1.0 5.0 0.00 0.00 0.00 41 1015.9
20260902190330 101 214 4.0 5.0 0.00 0.00 0.00 39 1016.0
20260902185823 102 189 1.0 4.0 0.00 0.00 0.00 38 1016.1
20260902185323 101 176 0.0 8.0 0.00 0.00 0.00 41 1016.0
20260902184818 101 152 0.0 8.0 0.00 0.00 0.00 40 1016.1
20260902184333 100 195 2.0 8.0 0.00 0.00 0.00 40 1016.2
20260902183827 100 217 2.0 6.0 0.00 0.00 0.00 41 1016.3
20260902183342 100 185 1.0 6.0 0.00 0.00 0.00 41 1016.4
20260902182836 100 143 2.0 6.0 0.00 0.00 0.00 42 1016.4
20260902182329 100 212 2.0 6.0 0.00 0.00 0.00 41 1016.5
20260902181823 101 231 1.0 6.0 0.00 0.00 0.00 42 1016.6
20260902181357 100 212 2.0 6.0 0.00 0.00 0.00 42 1016.6
20260902180834 100 210 1.0 5.0 0.00 0.00 0.00 42 1016.7
20260902180328 99 131 1.0 7.0 0.00 0.00 0.00 43 1016.8
20260902175822 98 200 3.0 7.0 0.00 0.00 0.00 44 1016.9
20260902175357 98 103 1.0 7.0 0.00 0.00 0.00 44 1017.0
20260902174831 99 77 2.0 7.0 0.00 0.00 0.00 42 1017.1
20260902174326 99 80 1.0 5.0 0.00 0.00 0.00 45 1017.0
20260902173840 99 195 1.0 4.0 0.00 0.00 0.00 44 1017.1
20260902173334 99 228 0.0 3.0 0.00 0.00 0.00 43 1017.2
20260902172830 98 198 0.0 6.0 0.00 0.00 0.00 46 1017.3
20260902172329 97 293 2.0 7.0 0.00 0.00 0.00 45 1017.3
20260902171824 97 217 3.0 7.0 0.00 0.00 0.00 45 1017.3
20260902171319 97 229 1.0 5.0 0.00 0.00 0.00 46 1017.4
20260902170853 97 214 1.0 6.0 0.00 0.00 0.00 46 1017.5
20260902170327 97 212 2.0 6.0 0.00 0.00 0.00 46 1017.5
20260902165821 97 291 1.0 6.0 0.00 0.00 0.00 45 1017.5
20260902165335 96 204 1.0 6.0 0.00 0.00 0.00 46 1017.6
20260902164830 96 214 0.0 6.0 0.00 0.00 0.00 46 1017.6
20260902164329 96 193 3.0 6.0 0.00 0.00 0.00 47 1017.7
20260902163823 96 209 3.0 6.0 0.00 0.00 0.00 47 1017.8
20260902163318 96 213 3.0 6.0 0.00 0.00 0.00 48 1017.9
20260902162832 95 203 2.0 5.0 0.00 0.00 0.00 50 1018.0
20260902162348 95 222 3.0 5.0 0.00 0.00 0.00 49 1018.0
20260902161822 95 196 2.0 5.0 0.00 0.00 0.00 50 1018.0
20260902161336 94 209 1.0 6.0 0.00 0.00 0.00 51 1018.0
20260902160831 94 210 2.0 9.0 0.00 0.00 0.00 52 1018.1
20260902160330 94 233 3.0 9.0 0.00 0.00 0.00 50 1018.2
20260902155824 94 212 2.0 5.0 0.00 0.00 0.00 50 1018.2
20260902155358 94 71 0.0 6.0 0.00 0.00 0.00 51 1018.2
20260902154831 94 222 0.0 8.0 0.00 0.00 0.00 52 1018.1
20260902154326 94 195 3.0 8.0 0.00 0.00 0.00 50 1018.1
20260902153841 94 187 2.0 5.0 0.00 0.00 0.00 51 1018.0
20260902153335 93 237 0.0 7.0 0.00 0.00 0.00 52 1018.1
20260902152850 93 201 3.0 7.0 0.00 0.00 0.00 51 1018.1
20260902152344 93 234 3.0 6.0 0.00 0.00 0.00 53 1018.1
20260902151817 93 196 1.0 6.0 0.00 0.00 0.00 53 1018.1
20260902151336 92 212 1.0 5.0 0.00 0.00 0.00 54 1018.1
20260902150831 91 219 2.0 9.0 0.00 0.00 0.00 54 1018.1
20260902150326 91 209 3.0 10.0 0.00 0.00 0.00 55 1018.0
20260902145841 91 224 4.0 10.0 0.00 0.00 0.00 55 1018.0
20260902145335 91 261 3.0 6.0 0.00 0.00 0.00 55 1018.0
20260902144830 90 151 2.0 6.0 0.00 0.00 0.00 56 1018.0
20260902144325 89 226 3.0 6.0 0.00 0.00 0.00 57 1018.0
20260902143820 89 213 2.0 7.0 0.00 0.00 0.00 58 1018.1
20260902143354 88 217 4.0 10.0 0.00 0.00 0.00 57 1018.1
20260902142832 89 218 3.0 10.0 0.00 0.00 0.00 57 1018.1
20260902142347 90 249 4.0 7.0 0.00 0.00 0.00 56 1018.1
20260902141820 90 206 3.0 6.0 0.00 0.00 0.00 56 1018.1
20260902141335 90 212 2.0 8.0 0.00 0.00 0.00 57 1018.1
20260902140830 89 247 2.0 9.0 0.00 0.00 0.00 57 1018.1
20260902140325 89 148 2.0 7.0 0.00 0.00 0.00 59 1018.1
20260902135820 89 216 2.0 6.0 0.00 0.00 0.00 58 1018.1
20260902135319 89 214 1.0 3.0 0.00 0.00 0.00 60 1018.1
20260902134834 89 110 1.0 2.0 0.00 0.00 0.00 62 1018.0
20260902134328 89 210 0.0 1.0 0.00 0.00 0.00 61 1018.2
20260902133823 88 174 0.0 2.0 0.00 0.00 0.00 62 1018.2
20260902133318 87 169 0.0 2.0 0.00 0.00 0.00 63 1018.2
20260902132832 87 172 1.0 4.0 0.00 0.00 0.00 63 1018.2
20260902132327 87 188 0.0 3.0 0.00 0.00 0.00 65 1018.2
20260902131821 86 164 0.0 2.0 0.00 0.00 0.00 65 1018.1
20260902131320 86 183 0.0 3.0 0.00 0.00 0.00 66 1018.1
20260902130835 86 158 0.0 3.0 0.00 0.00 0.00 66 1018.0
20260902130350 85 219 0.0 1.0 0.00 0.00 0.00 67 1018.0
20260902125825 83 208 0.0 2.0 0.00 0.00 0.00 70 1018.0
20260902125319 82 165 0.0 2.0 0.00 0.00 0.00 71 1018.0
20260902124833 81 179 0.0 3.0 0.00 0.00 0.00 74 1018.0
20260902124328 79 175 1.0 3.0 0.00 0.00 0.00 77 1017.8
20260902123823 77 169 0.0 0.0 0.00 0.00 0.00 80 1017.8
20260902123318 76 171 0.0 0.0 0.00 0.00 0.00 80 1017.7
20260902122837 76 127 0.0 0.0 0.00 0.00 0.00 80 1017.6
20260902122351 75 127 0.0 0.0 0.00 0.00 0.00 81 1017.6
20260902121825 75 147 0.0 0.0 0.00 0.00 0.00 81 1017.6
20260902121321 75 147 0.0 0.0 0.00 0.00 0.00 81 1017.5
20260902120835 75 147 0.0 0.0 0.00 0.00 0.00 81 1017.3
20260902120330 75 98 0.0 0.0 0.00 0.00 0.00 80 1017.3
20260902115826 75 96 0.0 0.0 0.00 0.00 0.00 81 1017.2
20260902115341 75 104 0.0 0.0 0.00 0.00 0.00 80 1017.3
20260902114834 75 108 0.0 0.0 0.00 0.00 0.00 80 1017.3
20260902114348 76 110 0.0 0.0 0.00 0.00 0.00 80 1017.3
20260902113826 76 110 0.0 0.0 0.00 0.00 0.00 79 1017.2
20260902113321 76 85 0.0 0.0 0.00 0.00 0.00 79 1017.2
20260902112835 76 77 0.0 0.0 0.00 0.00 0.00 79 1017.1
20260902112330 76 77 0.0 0.0 0.00 0.00 0.00 79 1017.1
20260902111827 76 139 0.0 0.0 0.00 0.00 0.00 79 1017.1
20260902111320 76 139 0.0 0.0 0.00 0.00 0.00 78 1017.1
20260902110836 76 139 0.0 0.0 0.00 0.00 0.00 78 1017.1
20260902110335 76 120 0.0 0.0 0.00 0.00 0.00 78 1017.1
20260902105830 76 122 0.0 0.0 0.00 0.00 0.00 78 1017.1
20260902105325 76 126 0.0 0.0 0.00 0.00 0.00 78 1017.1
20260902104840 76 178 0.0 0.0 0.00 0.00 0.00 78 1016.9
20260902104334 76 178 0.0 0.0 0.00 0.00 0.00 77 1016.9
20260902103848 77 178 0.0 0.0 0.00 0.00 0.00 77 1016.9
20260902103320 77 178 0.0 2.0 0.00 0.00 0.00 77 1016.8
20260902102835 77 166 0.0 2.0 0.00 0.00 0.00 77 1016.9
20260902102330 77 169 0.0 0.0 0.00 0.00 0.00 76 1016.9
20260902101829 77 169 0.0 0.0 0.00 0.00 0.00 76 1016.9
20260902101324 77 156 0.0 0.0 0.00 0.00 0.00 76 1016.9